Weather History for Ankara, Turkey

Change the Weather History Date:

Monday, February 18, 2013

  Actual Average Record
Temperature  
Mean Temperature 30 °F -  
Max Temperature 37 °F 46 °F 61 °F (2014)
Min Temperature 24 °F 25 °F 8 °F (2012)
Degree Days  
Heating Degree Days 34    
Moisture  
Dew Point 23 °F    
Average Humidity 72    
Maximum Humidity 94    
Minimum Humidity 33    
Precipitation  
Precipitation 0.00 in - - ()
Sea Level Pressure  
Sea Level Pressure 29.98 in    
Wind  
Wind Speed 3 mph ()    
Max Wind Speed 9 mph    
Max Gust Speed -    
Visibility 6.4 miles    
Events      
Averages and records for this station are not official NWS values.
T = Trace of Precipitation, MM = Missing Value Source: Averaged Metar Reports

Daily Weather History Graph

Daily Weather History Graph

Search for Another Location

Airport:

Trip Planner

Search our weather history database for the weather conditions in past years. The results will help you decide how hot, cold, wet, or windy it might be!

Date:

Astronomy

Feb. 18, 2013 Rise Set
Actual Time 6:37 AM EET 5:27 PM EET
Civil Twilight 6:09 AM EET 5:54 PM EET
Nautical Twilight 5:37 AM EET 6:26 PM EET
Astronomical Twilight 5:06 AM EET 6:58 PM EET
Moon 10:58 AM EET 12:58 AM EET
Length of Visible Light 11h 45m
Length of Day
10h 49m
First Quarter, 55% of the Moon is Illuminated
Feb 18
First Quarter
Feb 25
Full
Mar 4
Last Quarter
Mar 11
New
Mar 19
First Quarter

Hourly Weather History & Observations

Time (EET) Temp. Windchill Dew Point Humidity Pressure Visibility Wind Dir Wind Speed Gust Speed Precip Events Conditions
12:20 AM 24.8 °F - 23.0 °F 93% 29.98 in 6.2 mi Variable 1.2 mph - N/A   Partly Cloudy
12:50 AM 24.8 °F - 23.0 °F 93% 29.95 in 6.2 mi Variable 1.2 mph - N/A   Partly Cloudy
1:20 AM 24.8 °F - 23.0 °F 93% 29.95 in 6.2 mi Variable 1.2 mph - N/A   Partly Cloudy
1:50 AM 24.8 °F - 23.0 °F 93% 29.95 in 6.2 mi Variable 1.2 mph - N/A   Partly Cloudy
2:00 AM 24 °F - 23 °F 94% 30.09 in 6 mi 1.2 mph - -   Scattered Clouds
2:20 AM 24.8 °F - 23.0 °F 93% 29.95 in 6.2 mi Variable 1.2 mph - N/A   Partly Cloudy
2:50 AM 24.8 °F - 23.0 °F 93% 29.95 in 6.2 mi Variable 1.2 mph - N/A   Partly Cloudy
3:20 AM 24.8 °F - 23.0 °F 93% 29.95 in 6.2 mi Variable 1.2 mph - N/A   Partly Cloudy
3:50 AM 24.8 °F - 21.2 °F 86% 29.95 in 6.2 mi Variable 1.2 mph - N/A   Partly Cloudy
4:20 AM 24.8 °F - 23.0 °F 93% 29.95 in 6.2 mi North 1.2 mph - N/A   Partly Cloudy
4:50 AM 24.8 °F - 23.0 °F 93% 29.95 in 6.2 mi NW 1.2 mph - N/A   Partly Cloudy
5:20 AM 24.8 °F - 23.0 °F 93% 29.95 in 6.2 mi Variable 1.2 mph - N/A   Partly Cloudy
5:50 AM 24.8 °F - 23.0 °F 93% 29.95 in 6.2 mi South 2.3 mph - N/A   Partly Cloudy
6:20 AM 24.8 °F - 23.0 °F 93% 29.95 in 6.2 mi Variable 1.2 mph - N/A   Scattered Clouds
6:50 AM 24.8 °F - 23.0 °F 93% 29.95 in 6.2 mi Variable 1.2 mph - N/A   Scattered Clouds
7:20 AM 26.6 °F - 23.0 °F 86% 29.95 in 6.2 mi Variable 1.2 mph - N/A   Scattered Clouds
7:50 AM 26.6 °F - 23.0 °F 86% 29.95 in 6.2 mi Variable 1.2 mph - N/A   Scattered Clouds
8:00 AM 27 °F - 23 °F 80% 30.10 in 12 mi 1.2 mph - -   Partly Cloudy
8:20 AM 28.4 °F - 24.8 °F 86% 29.98 in 6.2 mi Variable 1.2 mph - N/A   Scattered Clouds
8:50 AM 30.2 °F - 24.8 °F 80% 29.98 in 6.2 mi Variable 2.3 mph - N/A   Scattered Clouds
9:20 AM 32.0 °F - 23.0 °F 69% 29.98 in 6.2 mi Variable 2.3 mph - N/A   Scattered Clouds
9:50 AM 32.0 °F 28.7 °F 23.0 °F 69% 29.98 in 6.2 mi North 3.5 mph - N/A   Scattered Clouds
10:20 AM 33.8 °F - 24.8 °F 70% 29.98 in 6.2 mi Variable 2.3 mph - N/A   Scattered Clouds
10:50 AM 35.6 °F 32.8 °F 23.0 °F 60% 29.98 in 6.2 mi NNW 3.5 mph - N/A   Scattered Clouds
11:20 AM 35.6 °F 32.8 °F 24.8 °F 65% 29.98 in 6.2 mi Variable 3.5 mph - N/A   Scattered Clouds
11:50 AM 35.6 °F 32.8 °F 21.2 °F 56% 29.98 in 6.2 mi Variable 3.5 mph - N/A   Scattered Clouds
12:20 PM 37.4 °F - 23.0 °F 56% 29.98 in 6.2 mi SW 2.3 mph - N/A   Scattered Clouds
12:50 PM 35.6 °F 31.7 °F 23.0 °F 60% 29.95 in 6.2 mi NNW 4.6 mph - N/A   Scattered Clouds
1:20 PM 35.6 °F 29.9 °F 21.2 °F 56% 29.95 in 6.2 mi West 6.9 mph - N/A   Scattered Clouds
1:50 PM 37.4 °F 33.8 °F 19.4 °F 48% 29.95 in 6.2 mi West 4.6 mph - N/A   Scattered Clouds
2:00 PM 37 °F - 18 °F 33% 30.08 in 12 mi West 4.6 mph - -   Partly Cloudy
2:20 PM 37.4 °F 32.1 °F 21.2 °F 52% 29.95 in 6.2 mi West 6.9 mph - N/A   Scattered Clouds
2:50 PM 37.4 °F 31.4 °F 19.4 °F 48% 29.95 in 6.2 mi West 8.1 mph - N/A   Scattered Clouds
3:20 PM 37.4 °F 31.4 °F 19.4 °F 48% 29.95 in 6.2 mi West 8.1 mph - N/A   Scattered Clouds
3:50 PM 37.4 °F 32.1 °F 19.4 °F 48% 29.95 in 6.2 mi West 6.9 mph - N/A   Scattered Clouds
4:20 PM 37.4 °F 31.4 °F 19.4 °F 48% 29.98 in 6.2 mi West 8.1 mph - N/A   Scattered Clouds
4:50 PM 35.6 °F 28.6 °F 21.2 °F 56% 29.98 in 6.2 mi West 9.2 mph - N/A   Scattered Clouds
5:20 PM 35.6 °F 29.9 °F 19.4 °F 52% 29.98 in 6.2 mi West 6.9 mph - N/A   Scattered Clouds
5:50 PM 35.6 °F 29.9 °F 19.4 °F 52% 29.98 in 6.2 mi West 6.9 mph - N/A   Scattered Clouds
6:20 PM 35.6 °F 30.7 °F 19.4 °F 52% 29.98 in 6.2 mi WSW 5.8 mph - N/A   Scattered Clouds
6:50 PM 35.6 °F 31.7 °F 19.4 °F 52% 30.01 in 6.2 mi West 4.6 mph - N/A   Scattered Clouds
7:20 PM 33.8 °F 29.6 °F 23.0 °F 65% 30.01 in 6.2 mi West 4.6 mph - N/A   Scattered Clouds
7:50 PM 33.8 °F 29.6 °F 23.0 °F 65% 30.01 in 6.2 mi WSW 4.6 mph - N/A   Scattered Clouds
8:00 PM 34 °F - 22 °F 50% 30.14 in 6 mi WSW 4.6 mph - -   Partly Cloudy
8:20 PM 33.8 °F 28.6 °F 23.0 °F 65% 30.01 in 6.2 mi West 5.8 mph - N/A   Scattered Clouds
8:50 PM 32.0 °F 27.5 °F 24.8 °F 75% 30.01 in 6.2 mi WSW 4.6 mph - N/A   Scattered Clouds
9:20 PM 32.0 °F 28.7 °F 24.8 °F 75% 30.01 in 6.2 mi SSW 3.5 mph - N/A   Scattered Clouds
9:50 PM 33.8 °F - 24.8 °F 70% 30.01 in 6.2 mi SSW 2.3 mph - N/A   Scattered Clouds
10:20 PM 33.8 °F 30.8 °F 24.8 °F 70% 30.01 in 6.2 mi SW 3.5 mph - N/A   Scattered Clouds
10:50 PM 32.0 °F 28.7 °F 24.8 °F 75% 30.01 in 6.2 mi SSW 3.5 mph - N/A   Scattered Clouds
11:20 PM 32.0 °F 27.5 °F 24.8 °F 75% 30.01 in 6.2 mi SW 4.6 mph - N/A   Scattered Clouds
11:50 PM 30.2 °F 25.4 °F 26.6 °F 86% 30.01 in 6.2 mi SSW 4.6 mph - N/A   Scattered Clouds